Morrisville, VT

10:05 AM EST on November 15, 2019 (GMT -0500)
Morrisville Stowe State

Weather History for KMVL - September, 2019

Change the Weather History Date:

Friday, September 6, 2019

  Actual Average Record
Temperature  
Mean Temperature 58 °F 61 °F  
Max Temperature 72 °F 74 °F 88 °F (2015)
Min Temperature 45 °F 49 °F 35 °F (2000)
Degree Days  
Heating Degree Days 6 5  
Month to date heating degree days 26 26  
Since 1 July heating degree days 91 121  
Cooling Degree Days 0 1  
Month to date cooling degree days 1 6  
Year to date cooling degree days 244 253  
Growing Degree Days 8 (Base 50)    
Moisture  
Dew Point 48 °F    
Average Humidity 89    
Maximum Humidity 100    
Minimum Humidity 47    
Precipitation  
Precipitation 0.00 in 0.10 in 0.45 in (2018)
Month to date precipitation 1.44 0.57  
Year to date precipitation 28.67 24.33  
Sea Level Pressure  
Sea Level Pressure 30.06 in    
Wind  
Wind Speed 1 mph ()    
Max Wind Speed 12 mph    
Max Gust Speed 17 mph    
Visibility 6.0 miles    
Events Fog    
T = Trace of Precipitation, MM = Missing Value Source: Averaged Metar Reports

Daily Weather History Graph

Daily Weather History Graph

Search for Another Location

Airport or City:

Astronomy

Sep. 06, 2019 Rise Set
Actual Time 6:18 AM EDT 7:18 PM EDT
Civil Twilight 5:48 AM EDT 7:47 PM EDT
Nautical Twilight 5:13 AM EDT 8:23 PM EDT
Astronomical Twilight 4:35 AM EDT 9:00 PM EDT
Moon 2:42 PM EDT (9/6) 11:58 PM EDT (9/6)
Length of Visible Light 13h 59m
Length of Day
12h 59m
First Quarter, 55% of the Moon is Illuminated
Sep 6
First Quarter
Sep 14
Full
Sep 21
Last Quarter
Sep 28
New
Oct 5
First Quarter

Hourly Weather History & Observations

Time (EDT) Temp. Windchill Dew Point Humidity Pressure Visibility Wind Dir Wind Speed Gust Speed Precip Events Conditions
12:51 AM 46.4 °F - 46.4 °F 100% 30.10 in 10.0 mi Calm Calm - N/A   Scattered Clouds
12:54 AM 46.9 °F - 46.0 °F 97% 30.11 in 10.0 mi Calm Calm - N/A   Scattered Clouds
1:16 AM 46.0 °F - 45.0 °F 96% 30.10 in 10.0 mi Calm Calm - N/A   Mostly Cloudy
1:29 AM 46.9 °F - 45.0 °F 93% 30.10 in 10.0 mi Calm Calm - N/A   Scattered Clouds
1:54 AM 46.9 °F - 45.0 °F 93% 30.11 in 9.0 mi Calm Calm - N/A   Mostly Cloudy
2:06 AM 46.0 °F - 45.0 °F 96% 30.10 in 1.8 mi Calm Calm - N/A   Mostly Cloudy
2:18 AM 46.0 °F 44.8 °F 45.0 °F 96% 30.10 in 0.8 mi South 3.5 mph - N/A   Mist
2:40 AM 46.9 °F - 46.0 °F 97% 30.10 in 1.2 mi South 3.5 mph - N/A   Mostly Cloudy
2:44 AM 46.9 °F - 46.0 °F 97% 30.09 in 3.0 mi SSW 3.5 mph - N/A   Mostly Cloudy
2:54 AM 46.9 °F - 45.0 °F 93% 30.10 in 10.0 mi SSW 4.6 mph - N/A   Scattered Clouds
3:02 AM 46.9 °F - 46.0 °F 97% 30.10 in 10.0 mi Calm Calm - N/A   Mostly Cloudy
3:26 AM 46.9 °F - 46.9 °F 100% 30.09 in 1.8 mi Calm Calm - N/A   Overcast
3:54 AM 46.9 °F - 46.9 °F 100% 30.11 in 1.0 mi Calm Calm - N/A   Overcast
4:06 AM 46.9 °F - 46.0 °F 97% 30.10 in 0.8 mi Calm Calm - N/A   Mist
4:54 AM 46.9 °F - 46.9 °F 100% 30.10 in 0.2 mi Calm Calm - N/A Fog Fog
5:54 AM 46.9 °F - 46.0 °F 97% 30.10 in 1.0 mi Calm Calm - N/A   Mist
6:04 AM 46.9 °F - 46.0 °F 97% 30.10 in 1.2 mi NNE 3.5 mph - N/A   Overcast
6:16 AM 46.9 °F - 46.0 °F 97% 30.10 in 3.0 mi Calm Calm - N/A   Overcast
6:25 AM 46.9 °F - 46.0 °F 97% 30.10 in 1.8 mi Calm Calm - N/A   Overcast
6:43 AM 48.0 °F - 46.9 °F 96% 30.10 in 2.5 mi Calm Calm - N/A   Overcast
6:54 AM 46.9 °F - 46.9 °F 100% 30.12 in 1.5 mi Calm Calm - N/A   Overcast
7:03 AM 48.0 °F - 46.9 °F 96% 30.10 in 3.0 mi Calm Calm - N/A   Overcast
7:14 AM 48.0 °F - 46.9 °F 96% 30.10 in 2.0 mi Calm Calm - N/A   Overcast
7:23 AM 48.0 °F - 46.9 °F 96% 30.10 in 3.0 mi Calm Calm - N/A   Overcast
7:54 AM 48.0 °F - 46.9 °F 96% 30.11 in 3.0 mi SE 3.5 mph - N/A   Overcast
7:57 AM 48.0 °F - 46.9 °F 96% 30.10 in 1.5 mi SSE 3.5 mph - N/A   Overcast
8:03 AM 48.0 °F - 46.9 °F 96% 30.10 in 0.8 mi Calm Calm - N/A   Overcast
8:16 AM 48.9 °F - 48.0 °F 97% 30.10 in 1.0 mi Calm Calm - N/A   Overcast
8:23 AM 48.9 °F - 48.0 °F 97% 30.10 in 1.8 mi Calm Calm - N/A   Overcast
8:27 AM 48.9 °F - 48.0 °F 97% 30.10 in 3.0 mi Calm Calm - N/A   Overcast
8:54 AM 50.0 °F - 50.0 °F 100% 30.12 in 10.0 mi South 3.5 mph - N/A   Mostly Cloudy
9:35 AM 52.0 °F - 51.1 °F 97% 30.09 in 10.0 mi SSE 3.5 mph - N/A   Scattered Clouds
9:54 AM 53.1 °F - 51.1 °F 93% 30.10 in 10.0 mi SSE 3.5 mph - N/A   Clear
10:54 AM 62.1 °F - 53.1 °F 72% 30.08 in 10.0 mi South 3.5 mph - N/A   Clear
11:54 AM 66.9 °F - 51.1 °F 57% 30.05 in 10.0 mi SW 4.6 mph - N/A   Clear
12:54 PM 68.0 °F - 50.0 °F 52% 30.03 in 10.0 mi South 8.1 mph - N/A   Partly Cloudy
1:54 PM 70.0 °F - 50.0 °F 49% 30.01 in 10.0 mi Variable 4.6 mph - N/A   Partly Cloudy
2:54 PM 71.1 °F - 50.0 °F 47% 29.99 in 10.0 mi Variable 5.8 mph - N/A   Partly Cloudy
3:54 PM 68.0 °F - 48.9 °F 50% 29.96 in 10.0 mi South 6.9 mph - N/A   Scattered Clouds
4:54 PM 66.9 °F - 51.1 °F 57% 29.95 in 10.0 mi SSE 4.6 mph - N/A   Mostly Cloudy
5:54 PM 66.9 °F - 53.1 °F 61% 29.95 in 10.0 mi South 5.8 mph - N/A   Partly Cloudy
6:54 PM 63.0 °F - 52.0 °F 67% 29.94 in 10.0 mi South 3.5 mph - N/A   Clear
7:54 PM 55.9 °F - 53.1 °F 90% 29.96 in 10.0 mi Calm Calm - N/A   Scattered Clouds
8:54 PM 55.9 °F - 53.1 °F 90% 29.96 in 10.0 mi Calm Calm - N/A   Overcast
9:54 PM 54.0 °F - 52.0 °F 93% 29.94 in 10.0 mi Calm Calm - N/A   Clear
10:54 PM 53.1 °F - 51.1 °F 93% 29.92 in 10.0 mi Calm Calm - N/A   Clear
11:54 PM 53.1 °F - 50.0 °F 89% 29.91 in 10.0 mi Calm Calm - N/A   Clear